QIANFAN-43 (62244 NORAD) Tracking and Keplerian Element Data

This shows tracking and keplerian element data for the satellite.

Feedback or suggestion? Click here.




ElementValue
Catalog62244
NameQIANFAN-43
Epoch Orbit2558
Epoch Day34.78042031
Epoch Year2025
RAAN73.184
Inclination88.9888
Eccentricity0.001607
Argument of Perigee27.711
Mean Anonmoly332.4933
Mean Motion14.20467854
Decay Rate4.54E-06
L11 62244U 24232H 25034.78042031 .00000454 00000+0 20472-3 0 9990
L22 62244 88.9888 73.1840 0016070 27.7110 332.4933 14.20467854 25582



Live tracking and technical data element details for QIANFAN-43 (NORAD 62244). QIANFAN-43 can be tracked NOW for your location showing map with azimuth and elevation plus other details from your city location.







IsCatalogInMostPopularTable: catalog: 62244, numindb: 8
Update: records affected: 1



GetName: 62244 QIANFAN-43

Hit Count: updated at: Sun, 18 May 2025 22:21:52 GMT